星链-4116 (STARLINK-4116 )

导读

STARLINK-4116是美国星链计划中的一颗低轨卫星,于2022年7月17日发射入轨,归属于SpaceX公司的Starlink星座项目。该卫星承担全球卫星互联网组网任务,为偏远地区、海上航空等场景提供宽带互联网接入服务,作为星链星座的组成部分,助力构建覆盖全球的低轨通信网络。

Basic Information
目录编号:
53164
目录名称:
STARLINK-4116
国际标识:
2022-083AJ
轨道中心:
EARTH
卫星名称:
星链-4116
卫星全名:
星链-4116 (STARLINK-4116 )
卫星状态:
在轨 (已飞行1511 天)
发射日期:
2022-07-17 UTC
国别 :
美国 (US)
星等 :
--
Orbit Information
数据来源 国际轨道数据
星历时间: 2026-09-05T16:00:02+0800
10小时前
查看轨道信息
半长轴: 6862.551km
偏心率: 0.0000684
轨道倾角: 53.161°
近地点辐角 65.466°
升交点赤经 76.181°
平近点角 349.715°
近地点: 483.944km
远地点: 484.884km
周期: 94.295分钟
每日圈数: 15.271245
Detailed Information
固有亮度:
5
最大亮度:
2.5
卫星平台:
Starlink v1.5
覆盖范围:
全球
运营商:
太空探索技术公司
运营商所在国:
美国
制造商(研发单位):
太空探索技术公司
制造商所在国:
美国
使用方式:
暂无
Satellite Introduction
星链(Starlink)计划是由太空探索技术公司(SpaceX)提出的一个巨型低轨卫星互联网星座项目,计划在2019年至2024年间在太空搭建由约1.2万颗卫星组成的“星链”网络,其中1584颗将部署在地球上空550千米处的近地轨道,并从2020年开始工作。该卫星仍在工作。
2D Orbit Map
3D Orbit Map
Orbit Altitude Analysis Chart
Orbit Inclination Analysis Chart
Orbit Comprehensive Analysis Chart
View Comprehensive Chart
Conjunction Data List
Event ID Objects TCA Miss Dist (km) Collision Risk Probability Collision Risk Index (CRI) Action
CDM_260908-000805-316406-793221
2026-09-08T
00:08:39+0000
0.975 km
远距离
2.458003E-5 中风险 0.63
CDM_260908-064105-316405-952121
2026-09-08T
06:41:04+0000
0.845 km
远距离
2.370174E-5 中风险 0.62
CDM_260907-193305-316406-742321
2026-09-07T
19:33:57+0000
1.069 km
极远距离
1.690508E-5 中风险 0.6
CDM_260905-190005-316405-546821
2026-09-05T
19:00:33+0000
0.989 km
远距离
1.189133E-5 中风险 0.57
CDM_260907-115005-316406-751521
2026-09-07T
11:50:18+0000
1.082 km
极远距离
1.052678E-5 中风险 0.55
CDM_260907-224005-316406-734921
2026-09-07T
22:40:39+0000
1.408 km
极远距离
6.700991E-6 低风险 0.52
CDM_260908-040405-316406-793221
2026-09-08T
04:04:07+0000
1.791 km
极远距离
3.253003E-6 低风险 0.45
CDM_260901-014205-316406-677521
2026-09-01T
01:42:08+0000
1.983 km
极远距离
2.817543E-6 低风险 0.44
CDM_260908-054505-316405-930221
2026-09-08T
05:45:07+0000
2.239 km
极远距离
1.801661E-6 低风险 0.4